Weather in Soloniki

Belarus     55°29′01″N   28°51′34″E
temp.,
°C
wind,
m/s
gust,
m/s
humid.,
%
clouds,
%
prec.,
mm/h
press.,
hPa
HPBL,
m
8 march, mon
mon800:00−4w512766 0.0 1002771
03:00−4wnw599238 0.3 1003766
06:00−5nw4890100 0.3 1004652
09:00−6nnw488389 0.3 1006709
12:00−5nnw4770100 0.1 10091135
15:00−3nnw5763100 0.2 10111244
18:00−5nnw4770100 0.1 10131109
21:00−7n3781100 0.1 1015589
9 march, tue
tue900:00−9nnw269083 0.0 1017201
03:00−10nw259541 0.0 1018148
06:00−10nw269523 0.0 1019211
09:00−10nnw368120 0.0 1021326
12:00−5nnw35611 0.0 1022959
15:00−4nw345648 0.0 10221183
18:00−4w246383 0.0 1022447
21:00−6sw227687 0.0 102351
10 march, wed
wed1000:00−5sw3776100 0.0 1023216
03:00−5wsw3877100 0.0 1023289
06:00−5wsw3876100 0.0 1023332
09:00−4w3876100 0.0 1024375
12:00−2w346598 0.0 1025742
15:000wsw225396 0.0 10251225
18:00−2ese3470100 0.1 1025201
21:00−6ese4787100 0.1 1026305
11 march, thu
thu1100:00−8se4888100 0.0 1027317
03:00−8se4789100 0.0 1027292
06:00−9se4788100 0.0 1027266
09:00−8sse478690 0.0 1027282
12:00−4sse467136 0.0 1026521
15:00−1sse576136 0.0 10251166
18:00−2sse5866100 0.0 1023950
21:00−4sse6128377 0.0 1022699
12 march, fri
fri1200:00−5sse61380100 0.0 1020748
03:00−5sse71476100 0.0 1018792
06:00−5sse71576100 0.0 1015838
09:00−4sse81678100 0.0 1012806
12:00−3sse91590100 1.4 1010905
15:00−1s81491100 4.1 1008971
18:00−1s61296100 1.6 1007824
21:000s4998100 2.7 1007369